Probability
0 0 0 0 0 0 0 0 0 0 0 0 0 0 0 0 0 0 0 0 0 0 0 1 2 1 0 0 0 0 0 0 0 0 0 0 0 0 0 0 0 0 0 0 0 0 0 0 0
0 0 0 0 0 0 0 0 0 0 0 0 0 0 0 0 0 0 0 0 0 0 0 1 2 1 0 0 0 0 0 0 0 0 0 0 0 0 0 0 0 0 0 0 0 0 0 0 0
0 0 0 0 0 0 0 0 0 0 0 0 0 0 0 0 0 0 0 0 0 0 0 1 1 1 0 0 0 0 0 0 0 0 0 0 0 0 0 0 0 0 0 0 0 0 0 0 0
0 0 0 0 0 0 0 0 0 0 0 0 0 0 0 0 0 0 0 0 0 0 0 0 0 0 0 0 0 0 0 0 0 0 0 0 0 0 0 0 0 0 0 0 0 0 0 0 0
0 0 0 0 0 0 0 0 0 0 0 0 0 0 0 0 0 0 0 0 0 0 0 0 1 1 0 0 0 0 0 0 0 0 0 0 0 0 0 0 0 0 0 0 0 0 0 0 0
0 0 0 0 0 0 0 0 0 0 0 0 0 0 0 0 0 0 0 0 0 0 0 0 1 1 0 0 0 0 0 0 0 0 0 0 0 0 0 0 0 0 0 0 0 0 0 0 0
0 0 0 0 0 0 0 0 0 0 0 0 0 0 0 0 0 0 0 0 0 0 0 0 1 1 0 0 0 0 0 0 0 0 0 0 0 0 0 0 0 0 0 0 0 0 0 0 0
0 0 0 0 0 0 0 0 0 0 0 0 0 0 0 1 2 2 1 0 0 0 0 0 0 0 0 0 0 0 0 0 0 0 0 0 0 0 0 0 0 0 0 0 0 0 0 0 0
0 0 0 0 0 0 0 0 0 0 0 0 0 0 0 1 2 4 2 1 0 0 0 0 0 0 0 0 0 0 0 0 0 0 0 0 0 0 0 0 0 0 0 0 0 0 0 0 0
0 0 0 0 0 0 0 0 0 0 0 0 0 0 0 0 2 3 2 1 0 0 0 0 0 0 0 0 0 0 0 0 0 0 0 0 0 0 0 0 0 0 0 0 0 0 0 0 0
0 0 0 0 0 0 0 0 0 0 0 0 0 0 0 0 1 1 1 0 0 0 0 0 0 0 0 0 0 0 0 0 0 0 0 0 0 0 0 0 0 0 0 0 0 0 0 0 0
0 0 0 0 0 0 0 0 0 0 0 0 0 0 0 0 0 0 0 0 0 0 0 0 0 0 0 0 0 0 0 0 0 0 0 0 0 0 0 0 0 0 0 0 0 0 0 0 0
0 0 0 0 0 0 0 0 0 0 0 0 0 0 0 0 0 0 0 0 1 1 0 0 0 0 0 0 0 0 0 0 0 0 0 0 0 0 0 0 0 0 0 0 0 0 0 0 0
0 0 0 0 0 0 0 0 0 0 0 0 0 0 1 0 0 0 0 1 2 2 1 1 1 1 0 0 0 0 0 0 0 0 0 0 0 0 0 0 0 0 0 0 0 0 0 0 0
0 0 0 0 0 0 0 0 0 0 0 0 0 0 0 0 0 0 0 1 3 5 6 5 5 3 2 1 1 1 1 0 0 0 0 0 0 0 0 0 0 0 0 0 0 0 0 0 0
0 0 0 0 0 0 0 0 0 0 0 0 0 0 0 0 0 0 0 1 3 8 11 12 10 9 9 7 6 5 4 2 1 1 0 0 0 0 0 0 0 0 0 0 0 0 0 0 0
0 0 0 0 0 0 0 0 0 0 0 0 0 0 0 0 0 0 0 0 2 7 12 15 16 17 21 24 22 18 12 8 6 4 2 1 1 1 0 1 1 0 0 0 0 0 0 0 0
0 0 0 0 0 0 0 0 0 0 0 0 0 0 0 0 0 0 0 0 1 3 7 11 16 23 33 42 44 37 26 16 12 10 7 5 4 3 2 2 2 1 1 0 0 0 0 0 0
0 0 0 0 0 0 0 0 0 0 0 0 0 0 0 0 0 0 0 0 0 0 1 4 10 20 35 49 56 51 39 28 20 16 12 9 7 7 6 5 5 4 3 1 0 0 0 0 0
0 0 0 0 0 0 0 0 0 0 0 0 0 0 0 0 0 0 0 0 0 0 0 0 3 11 24 40 51 53 48 42 35 30 23 17 13 11 9 8 7 7 6 3 1 0 0 0 0
0 0 0 0 0 0 0 0 0 0 0 0 0 0 0 0 0 0 0 0 0 0 0 0 0 3 11 24 38 46 48 47 46 45 42 36 28 20 15 10 8 8 7 5 2 1 0 0 0
0 0 0 0 0 0 0 0 0 0 0 0 0 0 0 0 0 0 0 0 0 0 0 0 0 0 3 10 22 31 36 36 39 47 52 52 47 38 26 16 11 8 7 6 4 2 1 0 0
0 0 0 0 0 0 0 0 0 0 0 0 0 0 0 0 0 0 0 0 0 0 0 0 0 0 0 2 8 15 19 21 27 38 48 55 58 54 40 26 18 13 8 7 6 4 1 0 0
0 0 0 0 0 0 0 0 0 0 0 0 0 0 0 0 0 0 0 0 0 0 0 0 0 0 0 0 1 4 8 12 19 27 36 46 54 54 47 35 26 19 12 8 7 4 1 0 0
0 0 0 0 0 0 0 0 0 0 0 0 0 0 0 0 0 0 0 0 0 0 0 0 0 0 0 0 0 0 2 6 11 16 23 30 38 43 44 38 29 21 14 9 7 5 3 1 0
0 0 0 0 0 0 0 0 0 0 0 0 0 0 0 0 0 0 0 0 0 0 0 0 0 0 0 0 0 0 0 2 5 9 13 18 24 29 33 33 27 20 14 10 7 6 3 1 0
0 0 0 0 0 0 0 0 0 0 0 0 0 0 0 0 0 0 0 0 0 0 0 0 0 0 0 0 0 0 0 0 2 4 8 12 14 16 20 23 22 18 14 10 6 4 2 1 0
0 0 0 0 0 0 0 0 0 0 0 0 0 0 0 0 0 0 0 0 0 0 0 0 0 0 0 0 0 0 0 0 0 1 3 6 7 8 10 12 13 13 11 7 3 1 1 0 0
0 0 0 0 0 0 0 0 0 0 0 0 0 0 0 0 0 0 0 0 0 0 0 0 0 0 0 0 0 0 0 0 0 0 0 2 3 3 4 4 5 6 5 3 1 0 0 0 0
0 0 0 0 0 0 0 0 0 0 0 0 0 0 0 0 0 0 0 0 0 0 0 0 0 0 0 0 0 0 0 0 0 0 0 0 1 1 1 1 1 2 1 0 0 0 0 0 0
Wind_Speed
3 3 4 3 5 7 10 6 4 3 3 1 2 5 5 5 4 2 4 8 11 17 17 18 14 14 15 16 16 15 14 13 13 12 11 10 9 7 6 5 5 6 8 9 11 13 13 13 12
3 4 5 5 8 11 10 8 9 6 1 3 4 6 6 5 2 3 4 9 14 16 16 16 15 15 15 16 16 15 14 13 12 11 10 9 8 7 6 6 6 7 9 10 12 13 13 12 11
3 4 6 6 11 13 8 5 7 4 3 3 3 3 4 2 3 2 6 12 15 15 15 15 14 15 15 16 16 15 14 13 12 11 10 9 8 7 7 7 7 8 9 11 12 12 12 11 10
5 6 7 11 17 17 12 2 3 4 2 2 3 3 1 3 4 3 10 14 15 15 14 16 14 14 15 16 15 15 14 13 12 11 9 8 8 8 8 8 8 9 10 11 12 12 11 10 9
5 7 12 16 20 16 12 8 4 4 2 1 4 4 1 4 3 7 13 14 14 14 13 16 14 14 15 15 15 14 14 13 12 11 9 9 8 8 8 8 9 10 11 11 11 11 10 9 8
8 8 14 18 21 16 12 11 9 10 7 4 4 4 2 4 3 8 13 13 13 13 12 14 13 13 13 13 13 13 13 12 12 11 10 9 9 9 9 8 8 10 11 11 11 10 9 9 8
10 12 18 20 19 18 13 10 13 12 11 7 4 4 3 5 4 8 11 11 12 12 12 12 13 13 12 11 11 11 11 11 11 11 9 8 8 9 9 8 8 10 10 10 10 9 8 8 7
7 8 17 18 18 17 12 11 9 12 10 4 4 6 2 5 7 8 9 9 10 11 12 12 12 12 12 11 11 10 10 10 10 9 9 9 9 8 8 7 7 8 9 9 9 8 8 7 6
6 11 16 17 14 11 10 11 8 5 7 5 4 2 3 7 10 9 8 8 10 10 11 11 11 11 10 10 10 10 10 9 10 10 10 10 9 9 8 7 6 7 8 8 8 8 8 7 7
10 14 17 8 7 7 10 10 8 8 9 8 7 3 2 9 11 12 11 11 12 12 11 10 11 10 10 7 8 9 9 10 10 9 11 9 7 6 6 8 5 6 7 7 8 9 8 5 5
11 13 9 5 4 4 8 8 6 8 8 7 6 4 5 9 11 11 11 11 11 11 11 10 10 10 10 7 7 6 6 7 9 10 11 8 7 6 6 6 7 7 7 7 8 8 5 5 3
10 10 7 7 5 4 5 5 6 8 4 4 2 1 5 9 11 11 10 10 10 10 11 11 10 10 10 9 7 7 6 6 7 9 11 9 6 6 6 5 6 6 5 6 6 4 6 5 5
12 8 8 6 4 4 3 5 4 6 4 2 1 2 5 7 9 10 10 10 10 10 11 11 11 11 10 9 7 7 8 8 9 8 10 11 8 8 7 6 6 7 6 6 6 6 6 6 6
11 9 7 7 7 6 8 9 8 8 5 6 6 5 5 6 8 9 10 10 11 11 11 11 12 12 11 10 9 8 8 8 9 9 11 12 9 8 8 8 7 7 6 6 6 7 6 5 5
8 9 9 10 9 6 7 14 16 12 9 10 10 8 7 7 8 10 11 11 11 11 12 12 12 12 13 12 12 9 8 9 9 9 12 13 12 10 9 8 8 8 8 8 6 7 5 5 5
11 11 11 10 11 10 9 15 8 8 12 14 13 12 10 9 9 9 10 10 11 11 12 13 11 13 14 13 11 9 9 10 9 9 10 14 14 13 11 9 9 9 8 7 7 7 6 6 6
11 13 15 10 10 10 13 11 5 5 9 11 11 11 10 10 10 9 8 9 10 11 12 13 13 14 14 13 11 10 9 10 9 10 10 13 15 15 12 10 10 10 9 8 8 8 7 7 7
16 14 13 12 8 10 13 11 7 6 7 10 10 10 9 10 10 8 7 7 8 9 10 11 12 13 13 11 9 8 10 10 10 10 11 14 13 15 14 10 12 11 9 9 9 9 8 7 6
11 12 10 9 5 8 11 11 10 9 10 11 11 10 10 9 8 6 6 6 6 7 8 10 11 12 11 9 9 10 11 11 10 11 14 14 14 15 15 11 13 12 11 12 13 10 10 8 7
10 12 9 6 4 5 6 9 8 7 8 8 8 8 7 6 5 4 4 4 5 6 7 8 9 10 11 9 9 9 10 9 10 10 12 15 15 15 13 16 13 13 12 14 14 12 9 7 8
10 10 9 6 5 3 4 6 5 3 2 2 2 2 2 3 2 1 1 1 1 2 4 4 7 8 9 10 8 7 8 8 8 11 12 15 16 16 15 16 15 14 13 13 15 15 15 10 10
9 7 7 6 6 4 4 4 5 5 6 5 4 4 3 2 2 2 2 2 2 2 3 3 4 5 6 7 9 12 11 12 13 11 11 13 15 16 16 15 15 14 12 13 14 15 14 13 10
5 6 6 4 3 3 5 5 5 7 7 6 5 5 5 4 3 3 3 3 3 4 3 3 3 3 4 5 8 10 12 11 10 11 13 13 12 14 15 15 14 14 12 14 14 14 15 13 12
10 8 6 3 2 6 6 7 6 7 8 7 6 5 5 5 4 5 4 4 5 5 4 4 4 3 3 4 5 8 11 12 12 13 12 11 9 10 14 14 13 13 12 13 13 12 15 12 12
7 7 5 6 6 5 4 6 4 6 6 6 5 4 4 4 4 5 6 6 6 6 6 6 5 5 5 4 5 6 9 10 12 13 12 12 9 9 11 11 12 11 11 10 10 10 10 11 11
8 7 4 4 6 5 5 7 3 4 4 4 2 1 2 3 4 5 5 6 6 6 7 7 7 7 6 6 6 6 7 7 7 10 10 10 9 9 9 10 10 10 9 9 8 7 8 7 7
8 5 1 1 1 3 6 4 2 5 7 6 4 1 2 3 4 4 5 6 6 7 7 8 8 7 8 8 7 7 6 7 8 9 9 8 8 6 7 7 8 8 8 8 8 6 7 7 6
1 5 4 4 4 5 5 6 8 13 11 7 3 1 2 2 3 4 5 6 6 6 7 7 7 8 8 8 7 6 7 7 7 7 7 6 6 5 5 5 5 6 6 7 7 6 7 8 7
6 4 3 3 2 3 4 4 5 13 10 6 2 1 2 2 3 4 4 5 5 6 6 7 8 8 8 8 8 7 7 6 5 4 4 4 3 3 3 3 4 5 6 7 8 8 9 10 9
3 5 6 4 4 3 2 4 4 9 7 3 0 1 1 2 2 3 4 5 5 6 7 7 8 8 8 8 7 7 7 6 5 5 4 3 1 1 2 4 5 6 7 7 9 10 10 10 10
Wind_Direction
242 253 238 228 231 230 238 223 223 203 203 232 285 259 258 251 246 37 64 156 146 149 149 153 154 155 154 151 146 143 141 139 137 136 135 133 132 134 139 139 140 144 140 134 126 118 114 109 106
230 219 216 220 234 229 226 223 221 225 329 321 267 245 245 243 333 49 136 152 153 151 150 157 150 155 154 151 147 145 143 141 139 138 136 134 133 134 137 132 133 132 131 127 122 117 115 112 107
189 232 216 216 229 232 226 211 224 216 280 282 280 245 271 329 20 87 139 154 154 152 153 146 150 154 153 150 149 147 146 144 142 138 136 134 132 132 126 120 118 124 125 123 121 119 118 114 109
189 190 216 227 228 229 232 191 167 189 208 233 300 264 212 34 357 98 144 157 156 154 153 147 153 152 151 150 150 150 149 147 144 141 138 137 134 130 121 115 115 118 122 121 121 121 120 117 111
207 202 211 225 230 228 230 226 198 218 232 286 310 300 150 65 45 132 151 158 157 155 152 152 152 151 151 152 154 155 154 152 150 147 146 145 140 128 120 118 118 122 124 123 124 123 122 119 113
194 210 219 222 225 224 223 224 227 244 252 272 288 284 90 72 107 146 153 160 158 155 154 153 149 149 152 155 157 159 159 157 155 153 153 151 144 135 130 128 125 127 126 124 126 126 124 121 116
209 210 225 227 226 221 216 211 224 236 245 249 268 265 131 104 121 152 156 162 161 160 160 161 163 159 154 154 158 162 161 159 159 158 155 145 139 140 141 139 134 130 128 128 128 128 127 124 122
229 221 225 226 227 224 209 202 223 234 246 246 240 247 138 109 139 152 155 163 167 169 169 170 171 172 173 169 161 162 162 160 160 156 144 132 134 143 144 154 139 135 131 131 131 130 127 124 125
211 222 220 214 223 220 191 199 205 220 229 207 219 276 41 126 148 155 159 169 178 181 179 177 177 178 179 179 168 173 167 165 165 161 146 155 168 163 164 153 134 141 138 139 137 131 124 122 121
205 223 224 217 218 196 180 195 186 187 202 204 202 174 129 155 166 173 179 181 185 188 188 186 186 183 184 179 178 189 186 181 189 181 173 185 180 169 164 134 147 145 142 145 138 131 143 180 156
208 227 219 195 197 184 175 185 187 200 201 203 205 185 157 174 183 189 192 192 193 192 191 194 195 192 190 186 190 190 191 190 196 193 186 189 182 171 177 169 168 171 173 172 151 169 183 188 173
209 219 212 201 187 186 178 179 192 214 188 121 98 118 171 188 196 199 200 200 197 198 199 199 202 202 203 198 195 196 195 195 196 196 195 192 189 190 187 189 182 183 187 184 189 197 182 187 183
209 198 203 209 202 205 207 217 229 223 192 181 194 188 189 198 203 206 210 208 206 206 205 205 204 208 208 209 207 206 204 201 200 199 200 200 197 198 195 197 191 196 193 190 196 200 189 192 188
204 200 198 210 219 226 237 244 240 234 224 230 230 223 212 209 211 211 215 217 215 213 211 209 209 209 210 212 213 214 211 208 209 203 205 205 206 205 201 203 200 201 201 200 200 202 195 197 196
190 198 213 222 220 218 228 243 236 237 237 240 238 236 231 228 223 224 223 225 224 220 217 213 211 211 212 215 218 221 218 213 212 209 209 209 211 210 207 210 205 204 204 202 204 199 202 197 193
187 201 214 209 214 212 218 245 226 224 231 239 242 242 241 239 237 237 236 234 232 228 223 218 212 213 214 215 217 219 222 221 218 214 212 212 213 212 211 213 211 206 202 201 199 197 198 195 198
187 206 210 195 200 202 215 247 228 210 225 235 237 241 244 247 245 241 240 240 239 233 229 224 218 218 218 217 216 218 220 223 224 220 217 214 214 213 212 215 214 206 203 203 199 203 204 201 200
191 197 199 197 180 201 215 231 225 223 234 243 243 242 243 248 253 258 254 248 244 242 238 232 225 224 223 218 217 218 221 224 225 225 223 219 215 214 215 215 215 208 204 203 201 199 204 206 193
188 189 189 187 165 203 220 237 244 251 249 251 250 248 247 251 263 270 268 258 246 240 239 238 235 228 223 218 215 216 221 223 224 225 227 224 221 216 215 215 214 209 209 207 204 197 197 197 182
180 185 179 157 165 215 228 248 252 254 251 255 254 250 249 253 256 264 267 258 249 245 243 244 242 240 232 227 224 224 227 228 227 225 228 226 223 219 215 216 214 209 211 210 206 196 196 188 188
188 189 175 155 152 177 251 234 204 174 176 191 214 233 243 252 260 280 297 291 278 274 269 259 253 250 244 239 234 231 232 234 230 227 227 226 223 221 218 219 218 213 211 211 206 201 200 194 195
183 178 168 163 189 177 237 219 154 142 129 120 113 106 97 89 76 47 34 32 17 342 323 299 282 266 256 246 236 231 229 230 232 233 232 230 226 224 221 220 220 217 214 215 210 206 208 202 195
150 139 145 164 193 210 209 239 161 160 146 122 101 87 75 66 60 52 36 24 23 12 355 336 316 295 281 261 247 242 240 242 245 243 241 239 231 226 223 221 219 219 216 218 213 207 210 209 202
131 118 99 107 195 229 203 222 185 171 157 138 112 88 74 63 56 52 46 37 33 25 16 2 347 337 320 287 265 250 250 249 249 248 246 244 239 230 225 222 221 220 218 218 217 211 211 212 209
164 159 163 180 201 214 149 222 206 138 150 148 123 85 58 50 43 36 32 25 21 15 10 1 354 346 338 316 287 270 262 258 253 253 250 248 243 235 228 222 223 221 219 215 212 209 208 210 210
180 198 213 197 192 157 175 224 140 127 159 170 165 92 48 42 33 27 22 13 9 5 0 356 350 342 338 328 313 295 281 268 262 258 256 254 250 244 236 226 222 218 212 205 200 198 196 193 199
163 192 347 67 99 206 190 209 198 160 170 175 168 122 57 32 22 17 13 8 3 359 356 350 343 338 336 329 319 308 299 284 276 272 266 261 257 255 242 228 219 211 201 192 181 182 178 170 171
102 144 164 193 209 214 180 197 174 168 168 165 159 81 41 23 16 14 9 5 0 356 351 351 348 343 339 334 329 318 311 302 291 279 269 265 262 252 236 221 208 194 180 167 160 155 155 150 143
149 165 180 176 259 256 192 141 140 162 158 156 138 25 3 4 6 9 6 5 2 3 1 1 359 353 349 345 340 336 334 331 320 305 292 279 266 248 221 191 169 160 155 151 146 143 144 139 134
209 189 179 195 196 234 274 110 123 163 159 162 292 332 350 5 14 14 13 14 14 13 10 7 4 0 356 351 352 355 354 355 358 1 360 3 32 87 120 128 130 130 135 139 139 139 139 137 135